Content
SEND FEEDBACK

Daily
Averages
Monthly
Summary
Romania

TIMISOARA, ROMANIA


Home > Europe > Romania
Elevation: 335 feet     Latitude: 45 45N     Longitude: 021 14E

WEATHER
 
SELECT A DAY
Number of Records: 284,016;   Date Range: 7/1/96 - 11/25/14
 
SHARE

PRINT THIS DATA

[ ← Previous Day ]
WEATHER ALMANAC - APRIL 10, 2014
[ Next Day → ]
[ °C ]   °F
Weather ElementAverageHighLow
Temperature47.1 °F59 °F (3:30 pm)32 °F (7:30 am)
Dewpoint38.7 °F42.8 °F (12:30 am)32 °F (7:00 am)
Humidity75.8 %100 % (5:00 am)42 % (3:30 pm)
Barometer29.98 in30.04 in (12:30 am)29.92 in (5:00 pm)
Wind Speed6.7 mph19.6 mph (6:30 pm)
Weather ElementAverage
Visibility6.2 mi
Wind DirectionW (264.7 °)

Weather ElementTotal
Precipitation---
Heating Degree Days19.5 (Base 65)
Averaged from 47 records on April 10, 2014
WEATHER CONDITIONS BREAKOUT
WIND DIRECTION BREAKOUT
WEATHER BY HOUR - APRIL 10, 2014
[ °C ]   °F
Local TimeTemperatureDewpointHumidityBarometerVisibilityWind DirectionWind SpeedGust SpeedPrecipitationEventsConditions
12:30 AM44.6 °F42.8 °F93 %30.04 in6.2 miNorth (350°)6.9 mphPartly Cloudy
1:00 AM44.6 °F42.8 °F93 %30.04 in6.2 miNorth (350°)5.8 mphPartly Cloudy
1:30 AM44.6 °F42.8 °F93 %30.04 inNNW (330°)5.8 mphClear
2:00 AM44.6 °F42.8 °F93 %30.01 inNW (320°)6.9 mphClear
2:30 AM42.8 °F41.0 °F93 %30.04 inCalmClear
3:00 AM41.0 °F39.2 °F93 %30.04 inNNW (340°)4.6 mphClear
3:30 AM39.2 °F37.4 °F93 %30.01 inNNW (330°)6.9 mphClear
4:00 AM37.4 °F35.6 °F93 %30.01 inNW (310°)9.2 mphClear
4:30 AM37.4 °F35.6 °F93 %30.01 inNW (320°)6.9 mphClear
5:00 AM35.6 °F35.6 °F100 %30.01 inWNW (300°)6.9 mphClear
5:30 AM35.6 °F35.6 °F100 %30.01 inWNW (300°)8.1 mphClear
6:00 AM35.6 °F33.8 °F93 %30.01 inWNW (300°)6.9 mphClear
6:30 AM33.8 °F33.8 °F100 %30.01 inNW (310°)6.9 mphClear
7:00 AM33.8 °F32.0 °F93 %30.01 inNW (310°)8.1 mphClear
7:30 AM32.0 °F32.0 °F100 %30.01 inWNW (300°)8.1 mphClear
8:00 AM33.8 °F33.8 °F100 %30.01 inWest (280°)4.6 mphClear
8:30 AM37.4 °F35.6 °F93 %30.01 inWNW (300°)5.8 mphClear
9:00 AM41.0 °F39.2 °F93 %30.01 inNW (320°)6.9 mphClear
9:30 AM44.6 °F42.8 °F93 %30.01 inNNW (340°)6.9 mphClear
10:00 AM46.4 °F42.8 °F87 %30.01 inNorth (360°)6.9 mphClear
10:30 AM48.2 °F42.8 °F82 %30.01 inNorth (360°)4.6 mphClear
11:00 AM50.0 °F42.8 °F76 %30.01 inNNE (20°)4.6 mphClear
11:30 AM51.8 °F42.8 °F71 %30.01 in6.2 miVariable2.3 mphPartly Cloudy
12:00 PM53.6 °F41.0 °F62 %30.01 in6.2 miWNW (300°)5.8 mphScattered Clouds
12:30 PM53.6 °F42.8 °F67 %30.01 in6.2 miWNW (290°)6.9 mphScattered Clouds
1:00 PM55.4 °F37.4 °F51 %30.01 in6.2 miWNW (300°)5.8 mphMostly Cloudy
1:30 PM57.2 °F35.6 °F44 %29.98 in6.2 miVariable4.6 mphMostly Cloudy
2:00 PM57.2 °F37.4 °F48 %29.98 in6.2 miWNW (290°)6.9 mphMostly Cloudy
2:30 PM57.2 °F37.4 °F48 %29.98 inWest (270°)6.9 mphClear
3:00 PM57.2 °F35.6 °F44 %29.98 inVariable5.8 mphClear
3:30 PM59.0 °F35.6 °F42 %29.95 inNW (310°)8.1 mphClear
4:00 PM59.0 °F35.6 °F42 %29.95 inWNW (290°)10.4 mphClear
4:30 PM55.4 °F37.4 °F51 %29.95 inNNW (340°)8.1 mphClear
5:00 PM57.2 °F35.6 °F44 %29.92 in6.2 miWNW (300°)5.8 mphPartly Cloudy
5:30 PM57.2 °F35.6 °F44 %29.92 in6.2 miWest (280°)6.9 mphPartly Cloudy
6:00 PM57.2 °F35.6 °F44 %29.92 in6.2 miNW (320°)6.9 mphPartly Cloudy
6:30 PM55.4 °F39.2 °F54 %29.92 in6.2 miNW (320°)19.6 mphPartly Cloudy
7:00 PM51.8 °F41.0 °F67 %29.92 in6.2 miNNW (340°)11.5 mphPartly Cloudy
7:30 PM51.8 °F41.0 °F67 %29.92 in6.2 miNNW (340°)5.8 mphScattered Clouds
8:00 PM51.8 °F42.8 °F71 %29.92 in6.2 miWNW (290°)6.9 mphScattered Clouds
8:30 PM50.0 °F41.0 °F71 %29.95 in6.2 miWNW (300°)11.5 mphScattered Clouds
9:00 PM48.2 °F42.8 °F82 %29.95 in6.2 miNW (320°)12.7 mphScattered Clouds
9:30 PM48.2 °F42.8 °F82 %29.95 in6.2 miWNW (290°)5.8 mphScattered Clouds
10:00 PM48.2 °F41.0 °F76 %29.95 in6.2 miSouth (190°)3.5 mphPartly Cloudy
10:30 PM48.2 °F41.0 °F76 %29.95 in6.2 miVariable2.3 mphPartly Cloudy
11:00 PM44.6 °F41.0 °F87 %29.95 in6.2 miNW (310°)3.5 mphPartly Cloudy
11:30 PM44.6 °F39.2 °F81 %29.95 in6.2 miCalmPartly Cloudy
Hourly data recorded from LRTR, located miles away from Timisoara, Romania







STORIES FROM OUR PARTNERS